Погода в Ветке

Беларусь     52°33′32″N   31°10′19″E
темп.,
°C
ветер,
м/с
пор.,
м/с
влажн.,
%
обл.,
%
осадки,
мм/ч
давл.,
гПа
погр.,
м
13 июня, вс
вс1300:00+14ю33845 0.0 100731
03:00+14ю359285 0.2 100687
06:00+14ю3791100 0.0 1004158
09:00+19ю5778100 0.0 1004529
12:00+21ююз5770100 1.2 10041105
15:00+21ю6768100 1.6 10041216
18:00+16зюз688593 0.7 1006711
21:00+14з588671 0.7 1007551
14 июня, пн
пн1400:00+11зюз37978 0.0 1009201
03:00+10зюз229626 0.0 101033
06:00+11ю119485 0.0 101169
09:00+15ююв1182100 0.0 1013405
12:00+20в126548 0.0 1014806
15:00+23св12597 0.0 10141205
18:00+23св22649 0.1 10141024
21:00+18ссв22845 0.6 101514
15 июня, вт
вт1500:00+16с3592100 0.0 101682
03:00+15ссв229438 0.0 101530
06:00+15с23945 0.0 101685
09:00+20с23810 0.0 1015416
12:00+23ссз336947 0.2 10141147
15:00+24ссз336535 1.2 10131201
18:00+23сз35732 1.3 1012944
21:00+18ссз36880 1.7 101399
16 июня, ср
ср1600:00+16с379483 0.0 1013120
03:00+14с379487 0.0 1013138
06:00+14с3992100 0.0 1014211
09:00+18с4681100 0.0 1015479
12:00+22с566857 0.1 10151279
15:00+21с677253 0.6 1016929
18:00+21ссв69731 0.3 10161146
21:00+16с412800 0.3 1017258
17 июня, чт
чт1700:00+13ссв49860 0.0 1019146
03:00+13ссв410850 0.0 1019183
06:00+13ссв411830 0.0 1021241
09:00+18св510710 0.0 1021556
12:00+21св79560 0.0 10221413
15:00+22всв79510 0.0 10221705
18:00+22всв58623 0.0 10221214
21:00+17св35815 0.0 102265